CAPE
2842 2630 2154 1716 1254 904 765 1040 1716 2368 2664 2865 2928 2144 1648 1454 1514 1928 2326 2579 2660 2638 2673 3032 3032 2915 2593 2300 1978 1851 2091 2633 2447 2698 2673 3154 3747 3726 2811 2347 2289 2627 2988 2574 1512 1070 1540 1458 1932 1575 1532 1354 762 1182 970 803 802 863 1004 1190 1183 1294 1365 1552 1447 1422 1400 1018 797 639 378 326 289 312 251 213 184 194 309 585 771 999 898 584 589
3120 3224 2986 2451 1822 1748 1586 1456 2485 3185 3461 2974 2608 1987 1744 1944 2110 2517 2512 2708 2930 2598 2938 3116 3157 3194 2885 2455 2106 1858 2660 3209 3268 3147 3062 2918 1888 1430 1536 1344 1683 1465 2139 1919 2012 2102 1196 1573 1939 1870 1604 1283 1046 1169 962 788 893 1067 1148 1094 1148 1302 1474 1553 1720 1672 1275 1126 803 702 424 332 348 347 367 236 238 304 477 651 789 891 910 780 804
3859 3703 3423 3179 2722 2506 2702 2770 3476 3856 3474 3056 2441 2072 2129 2415 2744 2800 3004 2981 3132 3353 3080 3035 3337 3413 3472 3138 3004 2889 2569 2560 2650 2714 2811 1923 1403 934 1234 1442 1163 978 1339 2079 2266 2167 1797 1678 1754 1878 1177 1120 1256 1320 1300 1130 964 1180 1116 1072 1202 1389 1703 1831 1772 1728 1320 1070 1102 642 467 439 455 450 446 284 348 472 556 663 608 693 819 963 988
4090 3944 3547 2828 2975 3127 3532 3676 3930 3818 3545 3115 3000 2774 2534 2803 3209 3466 3370 3570 3160 3403 3498 3448 3570 3363 2944 2482 2274 2400 2534 2482 2402 2542 2676 2444 2053 1796 1837 1688 1392 805 1152 1434 1313 1429 1322 1284 1437 1614 1626 1297 703 1068 1247 1284 1322 1374 1490 1557 1528 1568 1586 1684 1838 1822 1304 1096 1172 908 644 615 624 466 417 439 501 512 567 600 617 710 720 640 687
4052 4030 3654 3093 3247 3633 3909 4004 3890 3705 3012 3673 3778 3184 3459 3468 3916 3750 3237 2980 2611 2608 2304 2234 2003 2159 2044 1928 1945 2276 2578 2772 2878 2826 2626 2522 2386 2016 1453 1497 1385 1561 1781 1576 1747 1628 1467 1168 725 1700 1791 1680 1613 1574 1607 1720 1878 1882 1779 1660 1556 1350 1497 1694 1893 1872 1792 1544 1374 1315 1256 1068 979 864 758 592 438 374 476 656 910 963 883 768 727
3782 3710 3505 3306 3682 3549 3782 4029 3882 4142 4026 4396 3860 3812 4130 3757 3343 2960 2822 2599 2467 2410 2656 2443 2247 2288 2419 2392 2353 2533 2575 2432 2590 2532 2483 2172 1848 1607 1623 1592 1638 1748 1594 2330 1745 1675 1666 1768 2194 2124 2185 2076 2143 2086 1987 1897 1330 1085 1166 1294 1500 1664 1722 1783 2016 1891 1813 1806 1886 1664 1569 1299 930 862 842 749 559 495 604 771 813 1004 1085 948 732
4033 3809 3640 3400 3958 3676 3909 4430 4386 4621 4471 4013 3768 3304 3237 3154 3048 2918 2708 2838 2718 2625 2752 2651 2510 2294 2447 2400 2204 2215 2132 1956 1941 1883 1920 1739 1482 1370 1214 1204 1438 1245 1467 1178 1364 1439 1543 2245 2177 1909 1492 2062 2062 2089 1934 1751 1452 1756 1444 1879 1966 1918 1720 1360 1726 1909 2268 2251 1962 1732 1398 1204 962 866 850 900 838 1021 1016 957 848 645 608 745 878
3962 4050 3992 4075 4245 4378 4035 3988 3726 3519 3423 3324 2879 2690 2739 2552 2398 2356 2359 2501 2576 2279 2212 2017 1863 1762 1646 1573 1443 1334 1225 1392 1376 1232 1384 1255 1151 905 1184 1378 1271 1374 1136 1665 1739 1763 1817 1887 1999 2068 2016 1853 2025 2235 2059 1952 1593 1366 1434 2075 1874 1739 1794 1714 1786 1730 1874 1913 1790 1654 1116 878 879 914 951 995 1089 1127 1134 1009 896 905 736 678 620
4259 4133 4188 4212 3723 3311 3252 3145 2979 2995 2864 2652 2645 2264 2333 2134 1931 1929 1850 1676 1428 1538 1432 1168 1173 1176 1202 1216 1193 1180 1153 1148 1080 976 980 937 883 720 478 571 771 943 998 956 988 1040 1020 906 822 950 942 1046 1368 1478 1530 1596 1205 1000 1083 1148 1248 1255 1386 1369 1170 1303 1269 1259 933 896 783 745 760 806 791 863 922 924 844 683 650 712 1085 1118 985
4207 4062 3830 3416 3122 3026 2976 2784 2728 2676 2340 2048 1891 1876 1717 1529 1356 1225 1114 994 909 911 933 1009 1084 1112 1137 1091 1100 1096 1058 972 844 686 446 44 0 0 6 55 136 300 478 514 541 609 728 750 717 847 1130 1240 1276 1312 1410 1478 1445 1250 946 841 900 1252 2035 1950 1524 1126 1019 998 907 760 604 620 703 664 732 816 790 806 897 961 1092 1187 1474 1213 1044
3600 3368 3056 2746 2676 2582 2506 2268 2012 1921 1806 1588 1378 1319 1286 1198 1156 1172 1175 1202 1251 1241 1224 1207 1168 1115 1039 971 648 158 116 134 120 29 64 2 6 28 37 66 106 144 217 262 357 334 404 410 524 544 591 760 884 1186 1172 1118 1207 1252 1194 1228 1295 1210 1314 1212 1120 1385 1069 897 716 674 624 654 727 670 674 922 1110 1442 1443 1394 1531 1896 1684 1373 1152
2837 2610 2686 2424 2164 2044 1740 1574 1692 1454 1370 1366 1334 1273 1237 1189 1134 1120 1322 1379 1334 1163 924 598 301 227 165 162 137 80 47 21 2 32 3 0 0 14 10 13 26 58 104 157 123 174 228 290 314 373 417 549 668 745 882 1139 1196 1093 1090 1156 1168 1116 1181 1459 1176 932 957 815 818 943 962 891 801 960 991 984 1228 1315 1567 1588 1822 1348 1191 1224 1076
2402 2210 2031 1668 1770 1554 1507 1350 1228 1174 1138 1108 1138 1148 1201 1226 1058 778 305 181 235 260 169 145 149 131 40 24 3 3 0 25 0 0 0 0 0 0 13 32 40 40 42 38 101 129 196 176 139 178 234 360 462 562 550 578 703 1145 1335 1297 1288 1237 1173 1158 1142 1470 1483 1474 1814 1470 1063 913 888 1092 1098 1439 922 1062 1418 1586 1822 1692 1399 1166 1174
1795 1706 1704 1709 1514 1358 1194 1136 995 906 659 527 428 351 286 210 170 151 135 144 168 133 91 54 23 4 7 9 10 9 21 7 3 0 0 0 0 0 2 18 35 86 109 131 231 160 14 370 318 181 312 472 518 600 509 582 684 800 1004 1289 1362 1418 1304 1102 1089 1180 1283 1655 1496 981 1212 1230 1232 1012 1230 1442 1308 1157 1127 1238 1628 1694 1455 1194 1316
1684 1552 1341 1237 1036 945 763 704 594 463 325 238 160 126 98 152 142 134 69 36 16 0 2 6 8 8 11 12 16 28 11 7 0 0 0 0 0 0 0 10 22 23 39 108 120 156 217 344 417 315 528 582 506 532 725 822 602 407 514 548 815 1486 1619 1330 1329 1578 1764 1367 1174 821 1434 1353 1072 1049 1560 1356 1109 918 824 820 870 907 1079 1381 1577
1296 1089 932 770 658 503 419 325 198 149 82 70 90 110 60 38 6 2 0 1 7 9 9 10 13 15 16 20 22 22 19 0 0 0 0 0 0 0 5 12 15 18 14 9 9 39 146 241 244 179 421 704 504 381 409 751 854 790 419 499 636 678 864 802 824 774 1042 1016 835 1489 1185 1019 1040 1697 1658 1174 514 412 674 752 1429 1444 1443 1190 916
895 706 572 466 292 196 143 103 31 40 40 50 7 0 1 0 4 7 7 9 9 9 12 11 14 15 14 13 13 12 10 4 0 0 0 0 0 8 10 11 15 16 15 16 17 16 27 74 132 216 412 126 256 120 181 332 485 474 524 665 892 562 628 572 647 693 641 652 710 904 808 644 586 525 528 628 670 696 561 1107 1608 1414 1288 1180 1266
553 443 312 197 169 112 40 37 16 8 0 2 2 3 4 5 8 8 11 12 8 11 11 13 14 16 11 8 6 10 8 8 0 0 0 0 3 12 14 14 15 14 13 15 16 15 12 12 11 16 39 76 64 27 33 174 515 310 362 778 481 526 508 526 675 754 576 523 654 727 741 696 618 539 483 544 710 738 908 726 1305 1441 1305 1054 871
274 176 93 46 54 48 15 0 1 2 2 4 4 6 9 10 14 14 8 10 8 9 2 3 4 7 8 8 7 10 8 8 6 0 0 0 4 12 12 12 12 14 13 10 11 11 15 14 12 18 16 13 0 0 0 20 164 278 198 254 633 644 540 695 548 419 716 742 700 991 1272 958 973 1038 1052 701 596 526 1112 1162 1368 1201 1261 1121 1142
82 64 42 8 0 0 0 2 4 4 4 6 10 10 12 8 5 7 7 1 0 1 7 3 5 6 8 7 9 11 14 10 12 0 0 0 0 9 12 11 9 9 10 10 8 6 8 9 8 16 14 7 0 0 0 0 10 25 77 155 304 653 581 570 687 643 515 1044 1027 861 610 642 886 1145 1332 1427 1334 1002 1049 1475 1581 1246 996 1304 1080
61 42 8 0 0 2 2 4 4 6 7 10 9 6 5 4 4 4 2 4 6 5 8 7 7 6 6 8 8 10 13 9 10 0 2 0 0 2 7 8 8 8 8 7 6 6 8 12 13 16 2 0 0 0 0 0 0 4 21 98 107 24 24 181 241 261 622 611 701 978 944 682 460 718 1163 984 920 977 1313 1253 1214 1217 1162 1348 792
30 5 0 0 0 4 6 6 7 9 11 8 4 4 4 4 0 1 3 5 8 7 6 5 10 14 12 12 12 10 14 10 8 4 0 0 0 0 2 4 3 4 2 3 4 8 12 14 18 20 0 0 1 0 0 0 0 0 7 0 0 0 0 0 16 60 190 320 531 731 790 740 635 692 498 452 455 638 1235 873 684 1074 938 766 864
1 0 0 1 5 8 8 9 8 8 8 4 2 3 3 2 2 3 4 4 4 5 4 6 8 8 10 8 8 9 8 10 5 7 1 0 0 0 0 0 0 0 1 2 3 4 10 12 14 3 0 0 0 0 0 0 0 4 0 3 2 0 0 1 5 3 33 140 246 258 338 522 572 612 703 744 588 623 753 514 697 929 607 517 770
0 0 1 5 7 8 10 7 4 4 4 3 2 1 3 2 0 2 2 4 4 3 3 5 5 6 6 6 7 5 6 6 4 0 0 0 0 0 0 0 0 0 1 0 7 4 5 7 3 0 0 0 0 0 0 0 0 0 0 0 0 0 0 1 2 4 20 50 104 121 171 168 232 327 407 488 443 323 376 502 762 917 965 976 1143
0 0 2 8 10 9 10 8 7 0 1 2 3 1 0 0 0 0 0 0 3 2 3 2 4 5 5 3 4 5 3 5 4 2 0 0 0 0 0 0 0 2 1 10 14 8 0 0 0 1 3 4 3 3 1 0 0 0 0 0 0 0 1 1 2 4 20 42 39 46 46 60 54 91 105 96 78 86 124 142 153 170 199 206 270
1 5 9 15 10 8 7 4 3 4 3 2 0 1 0 0 0 0 0 0 0 0 0 1 1 2 3 4 3 4 3 2 2 1 0 0 0 0 0 0 0 0 2 9 1 0 0 0 1 2 4 8 8 5 2 5 0 0 0 1 3 6 4 7 13 12 10 14 16 17 13 24 23 36 12 11 11 8 21 29 34 80 100 141 201
4 8 10 12 11 10 7 4 2 2 2 0 0 0 0 0 0 0 0 0 0 0 0 0 0 0 0 2 2 2 2 2 0 0 1 0 0 0 0 0 0 1 5 9 4 8 2 2 0 0 0 0 2 0 0 0 0 1 1 1 6 9 10 12 10 13 10 6 5 4 1 6 8 12 9 11 30 52 41 21 10 12 8 28 64
4 7 9 12 11 9 6 2 2 2 0 0 0 0 0 0 0 0 0 0 1 0 0 0 0 0 0 0 0 0 2 0 0 0 0 0 0 0 0 0 2 6 1 8 14 10 9 9 12 26 16 16 12 14 8 8 6 4 3 2 1 1 0 0 0 4 15 17 24 31 47 51 54 43 56 79 83 103 100 64 16 23 16 27 37
10 11 10 8 11 10 8 4 1 0 0 0 0 0 0 0 0 0 0 0 0 0 0 0 0 0 0 0 0 0 0 0 0 0 0 0 0 0 0 0 0 0 0 1 17 1 2 9 19 16 19 19 14 12 10 7 7 2 0 0 8 13 11 12 12 12 21 12 11 20 14 18 21 20 24 42 80 80 43 61 73 46 48 62 63
12 9 9 11 9 6 5 7 5 0 0 0 0 0 0 0 0 0 0 0 0 0 0 0 0 0 0 0 0 0 0 0 0 0 0 0 0 0 0 0 0 0 0 0 4 8 20 32 39 23 16 14 16 14 12 9 4 10 13 7 15 18 15 6 5 15 10 16 13 20 11 18 18 18 21 11 11 21 28 45 30 34 37 44 47
11 12 10 14 10 6 6 7 5 3 0 0 0 0 0 0 0 0 0 0 0 0 0 0 0 0 0 0 0 0 0 0 0 0 0 0 0 0 0 0 0 0 0 19 2 2 7 10 16 17 10 7 11 14 8 3 2 0 0 0 0 2 8 7 12 11 11 16 10 14 19 18 17 14 13 12 13 12 11 18 14 14 15 16 14
12 10 17 14 9 8 7 6 4 4 0 0 1 0 0 0 0 0 0 0 0 0 0 0 0 0 0 0 0 0 0 0 0 0 0 0 0 0 0 0 0 0 0 0 6 10 10 7 8 10 7 9 6 4 4 3 2 0 1 0 0 0 0 0 2 2 3 3 2 4 4 3 3 2 3 3 4 5 5 5 6 9 10 8 10
12 18 16 11 11 8 6 6 3 1 1 1 1 0 0 0 0 0 0 0 0 0 0 0 0 0 0 0 0 0 0 0 0 0 0 0 0 0 0 0 0 0 0 0 0 0 1 1 1 0 0 0 0 0 0 0 0 0 0 0 0 0 0 0 0 0 0 0 0 0 0 0 0 0 0 0 0 0 2 4 4 4 2 2 4
20 21 15 11 11 10 7 5 4 0 1 0 0 0 0 0 0 0 0 0 0 0 0 0 0 0 0 0 0 0 0 0 0 0 0 0 0 0 0 1 0 0 0 0 0 0 0 0 0 0 0 0 0 0 0 0 0 0 0 0 0 0 0 0 0 0 0 0 0 0 0 0 0 0 0 0 0 0 0 0 0 0 0 0 0
19 11 8 8 11 10 8 6 2 0 0 0 0 0 0 0 0 0 0 0 0 0 0 0 0 0 0 0 0 0 0 0 0 0 0 0 0 0 0 14 0 0 0 0 0 0 0 0 0 0 0 0 0 0 0 0 0 0 0 0 0 0 0 0 0 0 0 0 0 0 0 0 0 0 0 0 0 0 0 0 0 0 1 0 0
21 22 10 7 8 11 7 4 3 1 1 0 0 0 0 0 0 0 0 0 0 0 0 0 0 0 0 0 0 0 0 0 0 0 0 0 0 0 0 0 0 0 0 0 0 0 0 0 0 0 0 0 0 0 0 0 0 0 0 0 0 0 0 0 0 0 0 0 0 0 0 0 0 0 0 0 0 0 0 0 0 0 0 0 0
24 22 11 11 12 8 8 6 5 1 0 0 0 0 0 0 0 0 0 0 0 0 0 0 0 0 0 0 0 0 0 0 0 0 0 0 0 0 0 0 0 0 0 0 0 0 0 0 0 0 0 0 0 0 0 0 0 0 0 0 0 0 0 0 0 0 0 0 0 0 0 0 0 0 0 0 0 0 0 0 0 0 0 0 0
31 19 14 12 13 8 12 6 0 0 0 0 0 0 0 0 0 0 0 0 0 0 0 0 0 0 0 0 0 0 0 0 0 0 0 0 0 0 0 0 0 0 0 0 0 0 0 0 0 0 0 0 0 0 0 0 0 0 0 0 0 0 0 0 0 0 0 0 0 0 0 0 0 0 0 0 0 0 0 0 0 0 0 0 0
20 9 8 8 6 6 2 0 0 0 0 0 0 0 0 0 0 0 0 0 0 0 0 0 0 0 0 0 0 0 0 0 0 0 0 0 0 0 0 0 0 0 0 0 0 0 0 0 0 0 0 0 0 0 0 0 0 0 0 0 0 0 0 0 0 0 0 0 0 0 0 0 0 0 0 0 0 0 0 0 0 0 0 0 0
9 9 8 8 4 2 2 2 2 0 0 0 0 0 0 0 0 0 0 0 0 0 0 0 0 0 0 0 0 0 0 0 0 0 0 0 0 0 0 0 0 0 0 0 0 0 0 0 0 0 0 0 0 0 0 0 0 0 0 0 0 0 0 0 0 0 0 0 0 0 0 0 0 0 0 0 0 0 0 0 0 0 0 0 0
7 8 3 4 3 4 4 2 2 2 0 0 0 0 0 0 0 0 0 0 0 0 0 0 0 0 0 0 0 0 0 0 0 0 0 0 0 0 0 0 0 0 0 0 0 0 0 0 0 0 0 0 0 0 0 0 0 0 0 0 0 0 0 0 0 0 0 0 0 0 0 0 0 0 0 0 0 0 0 0 0 0 0 0 0
5 3 4 3 1 5 1 3 0 0 0 0 0 0 0 0 0 0 0 0 0 0 0 0 0 0 0 0 0 0 0 0 0 0 0 0 0 0 0 0 0 0 0 0 0 0 0 0 0 0 0 0 0 0 0 0 0 0 0 0 0 0 0 0 0 0 0 0 0 0 0 0 0 0 0 0 0 0 0 0 0 0 0 0 0
3 3 4 5 6 3 2 0 0 0 0 0 0 0 0 0 0 0 0 0 0 0 0 0 0 0 0 0 0 0 0 0 0 0 0 0 0 0 0 0 0 0 0 0 0 0 0 0 0 0 0 0 0 0 0 0 0 0 0 0 0 0 0 0 0 0 0 0 0 0 0 0 0 0 0 0 0 0 0 0 0 0 0 0 0
3 2 6 4 5 2 1 0 0 0 0 0 0 0 0 0 0 0 0 0 0 0 0 0 0 0 0 0 0 0 0 0 0 0 0 0 0 0 0 0 0 0 0 0 0 0 0 0 0 0 0 0 0 0 0 0 0 0 0 0 0 0 0 0 0 0 0 0 0 0 0 0 0 0 0 0 0 0 0 0 0 0 0 0 0
3 4 5 6 3 2 0 0 0 0 0 0 0 0 0 0 0 0 0 0 0 0 0 0 0 0 0 0 0 0 0 0 0 0 0 0 0 0 0 0 0 0 0 0 0 0 0 0 0 0 0 0 0 0 0 0 0 0 0 0 0 0 0 0 0 0 0 0 0 0 0 0 0 0 0 0 0 0 0 0 0 0 0 0 0
5 6 5 4 0 0 0 0 0 0 0 0 0 0 0 0 0 0 0 0 0 0 0 0 0 0 0 0 0 0 0 0 0 0 0 0 0 0 0 0 0 0 0 0 0 0 0 0 0 0 0 0 0 0 0 0 0 0 0 0 0 0 0 0 0 0 0 0 0 0 0 0 0 0 0 0 0 0 0 0 0 0 0 0 0
7 6 2 2 0 0 0 0 0 0 0 0 0 0 0 0 0 0 0 0 0 0 0 0 0 0 0 0 0 0 0 0 0 0 0 0 0 0 0 0 0 0 0 0 0 0 0 0 0 0 0 0 0 0 0 0 0 0 0 0 0 0 0 0 0 0 0 0 0 0 0 0 0 0 0 0 0 0 0 0 0 0 0 0 0
4 2 0 0 0 0 0 0 0 0 0 0 0 0 0 0 0 0 0 0 0 0 0 0 0 0 0 0 0 0 0 0 0 0 0 0 0 0 0 0 0 0 0 0 0 0 0 0 0 0 0 0 0 0 0 0 0 0 0 0 0 0 0 0 0 0 0 0 0 0 0 0 0 0 0 0 0 0 0 0 0 0 0 0 0
0 0 0 0 0 0 0 0 0 0 0 0 0 0 0 0 0 0 0 0 0 0 0 0 0 0 0 0 0 0 0 0 0 0 0 0 0 0 0 0 0 0 0 0 0 0 0 0 0 0 0 0 0 0 0 0 0 0 0 0 0 0 0 0 0 0 0 0 0 0 0 0 0 0 0 0 0 0 0 0 0 0 0 0 0
0 0 0 0 0 0 0 0 0 0 0 0 0 0 0 0 0 0 0 0 0 0 0 0 0 0 0 0 0 0 0 0 0 0 0 0 0 0 0 0 0 0 0 0 0 0 0 0 0 0 0 0 0 0 0 0 0 0 0 0 0 0 0 0 0 0 0 0 0 0 0 0 0 0 0 0 0 0 0 0 0 0 0 0 0
0 0 0 0 0 0 0 0 0 0 0 0 0 0 0 0 0 0 0 0 0 0 0 0 0 0 0 0 0 0 0 0 0 0 0 0 0 0 0 0 0 0 0 0 0 0 0 0 0 0 0 0 0 0 0 0 0 0 0 0 0 0 0 0 0 0 0 0 0 0 0 0 0 0 0 0 0 0 0 0 0 0 0 0 0
Wind_Speed
15 14 13 13 14 15 16 17 18 18 20 21 21 20 19 19 21 21 22 23 24 24 24 25 25 26 27 26 25 26 28 30 32 32 31 32 32 30 29 25 25 29 33 36 37 32 34 38 42 41 41 42 35 34 35 35 34 34 35 37 37 38 38 37 34 32 33 33 31 29 27 27 29 31 31 32 32 32 32 31 30 28 27 28 28
15 15 15 15 17 17 15 14 18 20 22 22 21 21 20 21 23 24 24 25 26 25 26 26 27 28 27 25 24 24 26 29 30 32 33 40 42 35 34 33 31 27 33 34 36 39 36 38 41 43 45 43 36 34 35 34 33 33 33 36 37 38 39 38 36 34 31 33 29 28 26 26 27 31 31 31 32 33 32 32 33 31 30 29 28
15 16 16 17 18 18 19 19 21 23 24 24 24 24 24 25 26 26 27 26 28 28 28 30 31 35 34 35 35 35 32 30 31 32 37 47 42 35 33 35 33 31 32 36 38 39 38 38 38 40 40 37 38 36 35 33 33 32 32 34 35 36 38 38 37 33 29 28 27 25 26 26 26 28 30 31 31 32 31 31 33 34 33 32 30
15 16 17 19 20 22 23 23 22 23 23 24 25 26 25 26 30 29 27 27 26 29 30 31 35 35 34 33 33 33 33 33 32 33 36 40 44 41 39 38 37 35 36 38 37 39 38 37 37 37 37 38 39 35 35 36 37 37 35 36 36 35 34 34 34 32 28 25 26 25 26 26 25 24 28 30 30 30 30 30 32 33 34 34 31
16 18 19 20 22 23 23 22 21 21 22 25 26 26 27 28 33 34 33 33 34 32 32 34 33 33 32 32 33 34 34 34 35 36 37 38 38 39 38 37 36 35 39 39 39 40 39 38 34 36 38 37 37 37 38 37 40 41 40 39 38 35 31 30 30 30 27 24 24 26 27 27 26 25 27 27 28 29 29 29 31 32 34 34 34
17 19 20 21 23 24 24 24 24 25 26 28 28 28 30 33 34 35 35 37 37 36 36 34 34 34 33 31 32 33 34 34 36 36 38 41 42 40 39 37 35 37 39 37 40 38 38 37 39 38 38 37 37 37 39 41 47 38 35 36 36 36 33 29 30 28 26 25 25 24 28 28 27 26 26 27 27 28 30 30 30 31 33 34 35
19 20 21 23 23 25 27 27 29 30 30 31 33 32 33 34 34 34 35 35 36 35 34 33 33 33 33 32 32 34 37 38 38 39 40 40 41 43 43 38 36 40 41 42 39 41 38 40 40 41 39 39 39 39 40 40 43 42 38 39 39 37 37 33 31 29 28 27 27 27 27 28 28 27 28 29 29 29 30 31 31 31 32 33 34
21 22 24 25 27 30 31 32 33 35 35 36 36 37 37 37 36 36 35 35 36 36 35 34 34 34 33 33 34 35 37 38 40 41 40 40 41 40 40 41 40 41 39 41 41 40 40 40 40 41 42 40 40 43 42 43 45 43 38 40 41 38 37 36 35 32 30 28 28 29 29 28 29 30 31 32 31 30 31 32 31 32 32 33 32
24 25 28 30 31 32 35 36 38 38 40 41 41 40 40 40 39 38 38 37 36 37 37 37 37 38 39 39 39 41 41 41 42 42 43 43 43 41 41 41 41 41 40 40 39 38 38 38 38 38 37 38 37 37 37 38 38 37 38 38 37 37 36 36 35 34 32 29 28 30 29 28 29 30 31 32 32 31 34 34 33 33 35 34 33
27 29 31 33 34 35 36 37 38 39 40 41 42 42 43 43 43 43 42 42 41 40 39 39 39 40 40 41 41 42 43 44 43 44 49 nan nan nan nan nan 42 42 42 41 41 40 40 40 40 38 38 37 37 36 37 36 35 34 34 35 36 36 37 37 37 35 33 31 30 30 29 28 28 29 30 31 32 33 34 35 34 36 40 40 38
30 32 34 35 36 38 38 39 39 40 41 41 43 43 43 43 43 43 42 41 41 41 41 40 40 40 41 42 42 43 44 45 47 nan nan nan nan nan nan nan 44 44 44 43 42 41 40 40 40 39 37 35 35 35 33 31 31 32 32 31 32 32 31 31 33 35 33 31 31 30 28 26 26 28 30 32 34 34 35 36 37 40 41 40 38
33 35 36 38 39 40 40 40 40 40 40 41 41 41 41 42 42 42 41 41 41 41 41 41 40 41 43 43 43 nan nan nan nan nan nan nan nan nan nan nan nan nan 46 44 43 43 42 42 41 42 40 37 37 37 35 34 33 31 30 30 29 27 27 28 26 28 28 28 26 24 25 24 25 27 30 31 31 32 33 34 35 35 36 36 37
36 38 39 41 41 41 41 41 41 40 40 39 39 40 40 40 40 40 40 40 41 41 41 41 42 43 nan nan nan nan nan nan nan nan nan nan nan nan nan nan nan nan nan nan 43 43 42 41 40 40 40 35 35 35 35 33 32 31 31 29 26 24 24 24 24 24 24 25 24 22 23 25 24 26 28 36 39 30 28 30 31 32 33 34 34
39 40 41 42 43 43 42 42 41 40 40 39 39 40 39 40 39 40 40 40 41 40 nan nan nan nan nan nan nan nan nan nan nan nan nan nan nan nan nan nan nan nan 41 41 42 42 nan 40 38 36 36 34 33 31 31 31 30 30 29 29 28 26 26 25 24 23 23 24 24 23 23 26 25 26 29 36 34 32 28 26 26 28 30 31 33
40 41 43 44 45 45 44 43 42 41 40 39 40 40 nan 40 40 40 nan nan nan nan nan nan nan nan nan nan nan nan nan nan nan nan nan nan nan nan nan nan nan nan nan 39 39 40 39 38 35 32 32 31 30 28 28 28 28 27 26 27 27 28 28 29 30 30 29 26 24 22 21 22 23 24 29 34 31 28 29 26 26 28 30 32 32
42 43 44 46 47 46 45 44 41 40 nan nan nan 41 nan nan nan nan nan nan nan nan nan nan nan nan nan nan nan nan nan nan nan nan nan nan nan nan nan nan nan nan nan nan nan nan 35 34 32 29 27 26 24 24 24 25 26 24 23 23 23 24 24 25 30 27 25 26 23 22 22 22 28 31 31 34 31 25 23 23 27 27 28 30 28
44 45 46 47 48 48 45 42 nan nan nan nan nan nan nan nan nan nan nan nan nan nan nan nan nan nan nan nan nan nan nan nan nan nan nan nan nan nan nan nan nan nan nan nan nan nan nan nan 27 26 24 21 22 27 26 23 22 21 21 20 21 20 20 20 25 25 21 20 18 19 19 20 21 24 26 26 29 26 22 21 23 26 27 26 28
46 47 48 49 49 48 nan nan nan nan nan nan nan nan nan nan nan nan nan nan nan nan nan nan nan nan nan nan nan nan nan nan nan nan nan nan nan nan nan nan nan nan nan nan nan nan nan nan nan nan nan nan nan nan nan 20 19 18 17 19 17 15 16 18 18 20 21 17 17 16 16 16 18 20 22 23 24 27 25 22 23 27 26 25 25
48 49 nan nan nan nan nan nan nan nan nan nan nan nan nan nan nan nan nan nan nan nan nan nan nan nan nan nan nan nan nan nan nan nan nan nan nan nan nan nan nan nan nan nan nan nan nan nan nan nan nan nan nan nan nan nan 15 15 15 18 17 15 15 18 19 18 23 21 18 18 20 21 21 20 20 20 21 22 22 20 23 24 23 23 24
nan nan nan nan nan nan nan nan nan nan nan nan nan nan nan nan nan nan nan nan nan nan nan nan nan nan nan nan nan nan nan nan nan nan nan nan nan nan nan nan nan nan nan nan nan nan nan nan nan nan nan nan nan nan nan nan nan nan nan 16 16 15 20 20 21 20 18 20 21 21 21 22 22 21 21 21 21 19 18 19 20 22 21 21 23
nan nan nan nan nan nan nan nan nan nan nan nan nan nan nan nan nan nan nan nan nan nan nan nan nan nan nan nan nan nan nan nan nan nan nan nan nan nan nan nan nan nan nan nan nan nan nan nan nan nan nan nan nan nan nan nan nan nan nan nan 20 nan nan 19 20 19 17 16 17 16 17 18 18 16 20 22 21 20 19 19 20 21 21 21 21
nan nan nan nan nan nan nan nan nan nan nan nan nan nan nan nan nan nan nan nan nan nan nan nan nan nan nan nan nan nan nan nan nan nan nan nan nan nan nan nan nan nan nan nan nan nan nan nan nan nan nan nan nan nan nan nan nan nan nan nan nan nan nan nan nan nan 15 14 14 13 14 16 16 17 18 18 16 17 20 21 21 22 23 21 19
nan nan nan nan nan nan nan nan nan nan nan nan nan nan nan nan nan nan nan nan nan nan nan nan nan nan nan nan nan nan nan nan nan nan nan nan nan nan nan nan nan nan nan nan nan nan nan nan nan nan nan nan nan nan nan nan nan nan nan nan nan nan nan nan nan nan nan 12 12 11 12 13 13 14 15 17 17 20 26 22 21 24 23 20 18
nan nan nan nan nan nan nan nan nan nan nan nan nan nan nan nan nan nan nan nan nan nan nan nan nan nan nan nan nan nan nan nan nan nan nan nan nan nan nan nan nan nan nan nan nan nan nan nan nan nan nan nan nan nan nan nan nan nan nan nan nan nan nan nan nan nan nan nan 9 9 9 10 12 12 13 14 16 19 21 22 21 22 21 21 21
nan nan nan nan nan nan nan nan nan nan nan nan nan nan nan nan nan nan nan nan nan nan nan nan nan nan nan nan nan nan nan nan nan nan nan nan nan nan nan nan nan nan nan nan nan nan nan nan nan nan nan nan nan nan nan nan nan nan nan nan nan nan nan nan nan nan nan nan nan nan nan nan nan nan 14 nan nan nan 19 19 20 19 19 19 19
nan nan nan nan nan nan nan nan nan nan nan nan nan nan nan nan nan nan nan nan nan nan nan nan nan nan nan nan nan nan nan nan nan nan nan nan nan nan nan nan nan nan nan nan nan nan nan nan nan nan nan nan nan nan nan nan nan nan nan nan nan nan nan nan nan nan nan nan nan nan nan nan nan nan nan nan nan nan nan nan nan nan 23 23 23
nan nan nan nan nan nan nan nan nan nan nan nan nan nan nan nan nan nan nan nan nan nan nan nan nan nan nan nan nan nan nan nan nan nan nan nan nan nan nan nan nan nan nan nan nan nan nan nan nan nan nan nan nan nan nan nan nan nan nan nan nan nan nan nan nan nan nan nan nan nan nan nan nan nan nan nan nan nan nan nan nan nan nan nan nan
nan nan nan nan nan nan nan nan nan nan nan nan nan nan nan nan nan nan nan nan nan nan nan nan nan nan nan nan nan nan nan nan nan nan nan nan nan nan nan nan nan nan nan nan nan nan nan nan nan nan nan nan nan nan nan nan nan nan nan nan nan nan nan nan nan nan nan nan nan nan nan nan nan nan nan nan nan 13 nan nan nan nan nan nan nan
nan nan nan nan nan nan nan nan nan nan nan nan nan nan nan nan nan nan nan nan nan nan nan nan nan nan nan nan nan nan nan nan nan nan nan nan nan nan nan nan nan nan nan nan nan nan nan nan nan nan nan nan nan nan nan nan nan nan nan nan nan nan nan nan nan nan nan nan nan nan nan nan nan nan nan nan nan nan nan nan nan nan nan nan nan
nan nan nan nan nan nan nan nan nan nan nan nan nan nan nan nan nan nan nan nan nan nan nan nan nan nan nan nan nan nan nan nan nan nan nan nan nan nan nan nan nan nan nan nan nan nan nan nan nan nan nan nan nan nan nan nan nan nan nan nan nan nan nan nan nan nan nan nan nan nan nan nan nan nan nan nan nan nan nan nan nan nan nan nan nan
nan nan nan nan nan nan nan nan nan nan nan nan nan nan nan nan nan nan nan nan nan nan nan nan nan nan nan nan nan nan nan nan nan nan nan nan nan nan nan nan nan nan nan nan nan nan nan nan nan nan nan nan nan nan nan nan nan nan nan nan nan nan nan nan nan nan nan nan nan nan nan nan nan nan nan nan nan nan nan nan nan nan nan nan nan
nan nan nan nan nan nan nan nan nan nan nan nan nan nan nan nan nan nan nan nan nan nan nan nan nan nan nan nan nan nan nan nan nan nan nan nan nan nan nan nan nan nan nan nan nan nan nan nan nan nan nan nan nan nan nan nan nan nan nan nan nan nan nan nan nan nan nan nan nan nan nan nan nan nan nan nan nan nan nan nan nan nan nan nan nan
nan nan nan nan nan nan nan nan nan nan nan nan nan nan nan nan nan nan nan nan nan nan nan nan nan nan nan nan nan nan nan nan nan nan nan nan nan nan nan nan nan nan nan nan nan nan nan nan nan nan nan nan nan nan nan nan nan nan nan nan nan nan nan nan nan nan nan nan nan nan nan nan nan nan nan nan nan nan nan nan nan nan nan nan nan
nan nan nan nan nan nan nan nan nan nan nan nan nan nan nan nan nan nan nan nan nan nan nan nan nan nan nan nan nan nan nan nan nan nan nan nan nan nan nan nan nan nan nan nan nan nan nan nan nan nan nan nan nan nan nan nan nan nan nan nan nan nan nan nan nan nan nan nan nan nan nan nan nan nan nan nan nan nan nan nan nan nan nan nan nan
nan nan nan nan nan nan nan nan nan nan nan nan nan nan nan nan nan nan nan nan nan nan nan nan nan nan nan nan nan nan nan nan nan nan nan nan nan nan nan nan nan nan nan nan nan nan nan nan nan nan nan nan nan nan nan nan nan nan nan nan nan nan nan nan nan nan nan nan nan nan nan nan nan nan nan nan nan nan nan nan nan nan nan nan nan
nan nan nan nan nan nan nan nan nan nan nan nan nan nan nan nan nan nan nan nan nan nan nan nan nan nan nan nan nan nan nan nan nan nan nan nan nan nan nan nan nan nan nan nan nan nan nan nan nan nan nan nan nan nan nan nan nan nan nan nan nan nan nan nan nan nan nan nan nan nan nan nan nan nan nan nan nan nan nan nan nan nan nan nan nan
nan nan nan nan nan nan nan nan nan nan nan nan nan nan nan nan nan nan nan nan nan nan nan nan nan nan nan nan nan nan nan nan nan nan nan nan nan nan nan nan nan nan nan nan nan nan nan nan nan nan nan nan nan nan nan nan nan nan nan nan nan nan nan nan nan nan nan nan nan nan nan nan nan nan nan nan nan nan nan nan nan nan nan nan nan
nan nan nan nan nan nan nan nan nan nan nan nan nan nan nan nan nan nan nan nan nan nan nan nan nan nan nan nan nan nan nan nan nan nan nan nan nan nan nan nan nan nan nan nan nan nan nan nan nan nan nan nan nan nan nan nan nan nan nan nan nan nan nan nan nan nan nan nan nan nan nan nan nan nan nan nan nan nan nan nan nan nan nan nan nan
nan nan nan nan nan nan nan nan nan nan nan nan nan nan nan nan nan nan nan nan nan nan nan nan nan nan nan nan nan nan nan nan nan nan nan nan nan nan nan nan nan nan nan nan nan nan nan nan nan nan nan nan nan nan nan nan nan nan nan nan nan nan nan nan nan nan nan nan nan nan nan nan nan nan nan nan nan nan nan nan nan nan nan nan nan
nan nan nan nan nan nan nan nan nan nan nan nan nan nan nan nan nan nan nan nan nan nan nan nan nan nan nan nan nan nan nan nan nan nan nan nan nan nan nan nan nan nan nan nan nan nan nan nan nan nan nan nan nan nan nan nan nan nan nan nan nan nan nan nan nan nan nan nan nan nan nan nan nan nan nan nan nan nan nan nan nan nan nan nan nan
nan nan nan nan nan nan nan nan nan nan nan nan nan nan nan nan nan nan nan nan nan nan nan nan nan nan nan nan nan nan nan nan nan nan nan nan nan nan nan nan nan nan nan nan nan nan nan nan nan nan nan nan nan nan nan nan nan nan nan nan nan nan nan nan nan nan nan nan nan nan nan nan nan nan nan nan nan nan nan nan nan nan nan nan nan
nan nan nan nan nan nan nan nan nan nan nan nan nan nan nan nan nan nan nan nan nan nan nan nan nan nan nan nan nan nan nan nan nan nan nan nan nan nan nan nan nan nan nan nan nan nan nan nan nan nan nan nan nan nan nan nan nan nan nan nan nan nan nan nan nan nan nan nan nan nan nan nan nan nan nan nan nan nan nan nan nan nan nan nan nan
nan nan nan nan nan nan nan nan nan nan nan nan nan nan nan nan nan nan nan nan nan nan nan nan nan nan nan nan nan nan nan nan nan nan nan nan nan nan nan nan nan nan nan nan nan nan nan nan nan nan nan nan nan nan nan nan nan nan nan nan nan nan nan nan nan nan nan nan nan nan nan nan nan nan nan nan nan nan nan nan nan nan nan nan nan
nan nan nan nan nan nan nan nan nan nan nan nan nan nan nan nan nan nan nan nan nan nan nan nan nan nan nan nan nan nan nan nan nan nan nan nan nan nan nan nan nan nan nan nan nan nan nan nan nan nan nan nan nan nan nan nan nan nan nan nan nan nan nan nan nan nan nan nan nan nan nan nan nan nan nan nan nan nan nan nan nan nan nan nan nan
nan nan nan nan nan nan nan nan nan nan nan nan nan nan nan nan nan nan nan nan nan nan nan nan nan nan nan nan nan nan nan nan nan nan nan nan nan nan nan nan nan nan nan nan nan nan nan nan nan nan nan nan nan nan nan nan nan nan nan nan nan nan nan nan nan nan nan nan nan nan nan nan nan nan nan nan nan nan nan nan nan nan nan nan nan
nan nan nan nan nan nan nan nan nan nan nan nan nan nan nan nan nan nan nan nan nan nan nan nan nan nan nan nan nan nan nan nan nan nan nan nan nan nan nan nan nan nan nan nan nan nan nan nan nan nan nan nan nan nan nan nan nan nan nan nan nan nan nan nan nan nan nan nan nan nan nan nan nan nan nan nan nan nan nan nan nan nan nan nan nan
nan nan nan nan nan nan nan nan nan nan nan nan nan nan nan nan nan nan nan nan nan nan nan nan nan nan nan nan nan nan nan nan nan nan nan nan nan nan nan nan nan nan nan nan nan nan nan nan nan nan nan nan nan nan nan nan nan nan nan nan nan nan nan nan nan nan nan nan nan nan nan nan nan nan nan nan nan nan nan nan nan nan nan nan nan
nan nan nan nan nan nan nan nan nan nan nan nan nan nan nan nan nan nan nan nan nan nan nan nan nan nan nan nan nan nan nan nan nan nan nan nan nan nan nan nan nan nan nan nan nan nan nan nan nan nan nan nan nan nan nan nan nan nan nan nan nan nan nan nan nan nan nan nan nan nan nan nan nan nan nan nan nan nan nan nan nan nan nan nan nan
nan nan nan nan nan nan nan nan nan nan nan nan nan nan nan nan nan nan nan nan nan nan nan nan nan nan nan nan nan nan nan nan nan nan nan nan nan nan nan nan nan nan nan nan nan nan nan nan nan nan nan nan nan nan nan nan nan nan nan nan nan nan nan nan nan nan nan nan nan nan nan nan nan nan nan nan nan nan nan nan nan nan nan nan nan
nan nan nan nan nan nan nan nan nan nan nan nan nan nan nan nan nan nan nan nan nan nan nan nan nan nan nan nan nan nan nan nan nan nan nan nan nan nan nan nan nan nan nan nan nan nan nan nan nan nan nan nan nan nan nan nan nan nan nan nan nan nan nan nan nan nan nan nan nan nan nan nan nan nan nan nan nan nan nan nan nan nan nan nan nan
nan nan nan nan nan nan nan nan nan nan nan nan nan nan nan nan nan nan nan nan nan nan nan nan nan nan nan nan nan nan nan nan nan nan nan nan nan nan nan nan nan nan nan nan nan nan nan nan nan nan nan nan nan nan nan nan nan nan nan nan nan nan nan nan nan nan nan nan nan nan nan nan nan nan nan nan nan nan nan nan nan nan nan nan nan
Wind_Direction
338 338 336 347 5 15 13 359 356 349 347 344 343 342 339 337 330 324 320 322 322 324 326 325 323 320 318 315 315 311 310 308 309 307 307 306 299 292 288 291 296 304 302 301 300 302 302 302 300 299 298 302 309 301 300 300 294 292 291 289 289 289 290 291 292 291 290 288 283 276 271 269 269 266 261 261 262 263 263 262 261 258 254 253 251
334 334 337 345 359 2 3 349 340 340 341 341 342 339 335 330 325 319 319 316 317 320 319 314 311 305 300 298 297 299 300 303 304 305 305 293 287 297 298 296 300 302 303 302 299 298 299 300 301 302 303 305 306 300 299 297 294 294 291 288 288 287 288 290 290 289 287 285 282 278 274 271 268 269 266 261 260 262 265 265 263 261 257 253 253
328 330 338 344 352 350 344 343 338 338 340 338 338 336 332 327 320 318 314 310 310 308 307 306 304 304 308 309 309 310 308 303 301 302 300 299 308 308 300 294 293 298 301 301 298 296 297 298 299 300 300 300 295 297 299 297 297 298 295 290 287 286 287 288 286 285 284 282 279 272 272 271 267 265 265 263 260 260 262 265 265 264 261 259 257
329 334 341 346 345 342 341 340 339 336 334 333 333 332 326 319 310 306 301 300 298 294 290 291 293 298 302 304 302 299 301 302 302 301 301 304 305 306 301 299 300 305 303 295 293 294 295 296 297 297 297 296 299 299 296 295 294 293 293 290 289 289 288 289 290 286 281 279 275 269 266 265 266 265 265 266 266 266 266 265 266 265 264 262 260
332 335 340 343 340 337 336 333 330 330 330 323 323 322 319 314 308 309 309 304 295 292 294 293 298 300 301 304 304 302 300 301 301 301 300 297 293 289 289 290 291 295 292 290 290 291 293 292 295 294 291 291 292 293 292 292 289 287 286 287 287 287 287 290 291 289 285 280 272 270 269 268 267 264 264 262 262 265 268 268 266 266 265 264 260
329 331 334 337 335 333 329 326 322 320 320 316 314 312 311 311 311 311 310 306 306 306 303 305 303 300 300 300 298 298 299 299 298 295 293 290 293 293 288 288 291 291 288 289 288 289 291 295 295 292 290 289 288 288 286 286 280 281 288 288 288 288 287 289 290 291 289 283 276 267 268 267 265 265 265 265 262 261 264 266 266 267 265 264 264
321 325 328 331 328 325 321 315 310 309 309 306 305 310 310 307 306 307 307 307 307 304 303 304 303 300 299 299 299 296 293 294 295 294 295 297 297 297 299 300 300 296 299 299 299 299 298 297 296 294 294 295 294 293 291 291 291 291 288 291 288 288 289 290 289 289 287 284 278 271 264 265 266 264 267 268 265 264 263 262 264 266 267 267 265
315 317 319 321 319 314 310 308 305 305 305 303 304 306 305 305 305 306 307 308 307 306 306 303 302 302 303 302 301 300 298 297 296 296 298 298 295 295 295 296 296 297 297 295 293 294 293 293 293 292 291 290 290 290 288 286 285 285 290 286 286 286 285 284 284 283 282 277 274 270 267 262 266 269 268 267 266 267 266 263 261 261 264 264 263
310 313 315 315 313 314 311 308 307 305 304 304 305 305 305 306 306 307 309 310 312 309 308 305 304 303 303 303 302 301 299 298 297 297 294 291 290 291 291 291 292 291 290 291 291 292 292 291 290 290 288 287 288 286 284 281 283 285 284 283 282 281 281 280 279 278 277 274 269 267 265 266 267 268 269 270 269 265 263 262 261 260 260 261 262
307 310 311 312 313 313 310 308 306 304 304 303 303 303 303 304 305 306 307 307 308 309 309 307 306 305 304 304 303 301 301 300 300 294 290 nan nan nan nan nan 291 291 290 289 288 287 286 285 284 281 280 279 278 278 279 282 283 283 279 277 277 277 278 277 276 277 275 272 270 267 265 267 268 268 268 268 266 263 263 262 261 258 256 255 254
305 306 308 309 310 309 307 305 305 304 302 302 302 303 304 305 305 305 307 307 309 310 310 309 307 306 306 305 303 303 302 301 293 nan nan nan nan nan nan nan 293 292 291 290 288 286 285 283 282 281 281 282 284 286 286 286 285 284 284 282 278 276 274 275 276 273 272 270 268 268 268 266 266 265 265 264 264 264 263 261 259 259 257 256 256
302 303 304 306 307 307 306 305 303 302 301 301 301 303 304 305 305 306 307 308 309 309 309 309 308 308 306 305 304 nan nan nan nan nan nan nan nan nan nan nan nan nan 292 291 289 286 284 282 280 279 278 278 275 275 277 282 285 286 284 284 285 286 284 277 273 272 273 271 268 270 267 267 263 265 264 264 265 264 263 261 260 258 257 257 257
301 301 303 304 305 305 304 303 302 302 302 303 304 305 306 306 306 307 307 307 309 309 308 308 307 307 nan nan nan nan nan nan nan nan nan nan nan nan nan nan nan nan nan nan 290 287 284 281 278 276 275 274 276 276 276 274 276 281 286 288 288 287 285 284 282 275 267 268 268 265 270 267 264 262 260 259 254 249 257 262 261 260 260 258 256
299 301 303 305 305 304 303 302 302 303 304 306 307 308 308 308 308 308 308 308 308 308 nan nan nan nan nan nan nan nan nan nan nan nan nan nan nan nan nan nan nan nan 291 289 286 283 nan 276 274 272 272 273 272 272 272 272 271 271 272 276 278 281 286 287 284 282 278 270 268 266 265 270 267 261 256 259 261 263 259 257 258 260 260 257 253
298 300 302 304 305 304 303 302 303 305 306 308 310 310 nan 309 308 307 nan nan nan nan nan nan nan nan nan nan nan nan nan nan nan nan nan nan nan nan nan nan nan nan nan 290 287 285 279 274 271 270 267 267 268 265 265 268 270 268 265 262 264 265 271 275 273 270 270 270 265 265 265 267 268 268 265 262 261 262 262 255 250 248 248 249 252
299 301 302 303 304 304 304 304 304 305 nan nan nan 310 nan nan nan nan nan nan nan nan nan nan nan nan nan nan nan nan nan nan nan nan nan nan nan nan nan nan nan nan nan nan nan nan 280 271 266 265 264 264 262 260 266 271 268 266 264 263 262 263 264 271 280 281 277 268 267 267 262 260 257 260 265 265 259 257 259 258 260 262 260 257 257
300 301 303 304 305 305 305 305 nan nan nan nan nan nan nan nan nan nan nan nan nan nan nan nan nan nan nan nan nan nan nan nan nan nan nan nan nan nan nan nan nan nan nan nan nan nan nan nan 257 257 259 261 257 265 280 277 272 265 264 261 261 262 264 266 282 287 282 281 270 261 261 259 261 268 272 273 270 262 256 256 256 259 259 258 257
302 302 303 305 306 307 nan nan nan nan nan nan nan nan nan nan nan nan nan nan nan nan nan nan nan nan nan nan nan nan nan nan nan nan nan nan nan nan nan nan nan nan nan nan nan nan nan nan nan nan nan nan nan nan nan 278 277 271 267 264 256 256 262 263 263 274 294 284 270 258 257 259 261 268 276 276 273 270 264 261 258 260 262 261 257
301 303 nan nan nan nan nan nan nan nan nan nan nan nan nan nan nan nan nan nan nan nan nan nan nan nan nan nan nan nan nan nan nan nan nan nan nan nan nan nan nan nan nan nan nan nan nan nan nan nan nan nan nan nan nan nan 264 262 259 257 255 253 255 255 253 247 250 251 257 263 264 267 266 265 272 283 281 274 266 259 256 259 261 260 258
nan nan nan nan nan nan nan nan nan nan nan nan nan nan nan nan nan nan nan nan nan nan nan nan nan nan nan nan nan nan nan nan nan nan nan nan nan nan nan nan nan nan nan nan nan nan nan nan nan nan nan nan nan nan nan nan nan nan nan 247 251 252 251 254 257 254 254 257 258 257 255 252 259 264 269 272 276 272 263 258 259 264 264 262 262
nan nan nan nan nan nan nan nan nan nan nan nan nan nan nan nan nan nan nan nan nan nan nan nan nan nan nan nan nan nan nan nan nan nan nan nan nan nan nan nan nan nan nan nan nan nan nan nan nan nan nan nan nan nan nan nan nan nan nan nan 248 nan nan 256 253 246 258 263 263 262 263 266 260 259 264 271 265 260 260 258 261 264 264 260 257
nan nan nan nan nan nan nan nan nan nan nan nan nan nan nan nan nan nan nan nan nan nan nan nan nan nan nan nan nan nan nan nan nan nan nan nan nan nan nan nan nan nan nan nan nan nan nan nan nan nan nan nan nan nan nan nan nan nan nan nan nan nan nan nan nan nan 259 260 263 262 260 262 265 260 259 255 259 262 260 259 266 266 261 264 261
nan nan nan nan nan nan nan nan nan nan nan nan nan nan nan nan nan nan nan nan nan nan nan nan nan nan nan nan nan nan nan nan nan nan nan nan nan nan nan nan nan nan nan nan nan nan nan nan nan nan nan nan nan nan nan nan nan nan nan nan nan nan nan nan nan nan nan 263 257 252 251 253 252 252 258 264 255 254 258 256 253 264 271 265 260
nan nan nan nan nan nan nan nan nan nan nan nan nan nan nan nan nan nan nan nan nan nan nan nan nan nan nan nan nan nan nan nan nan nan nan nan nan nan nan nan nan nan nan nan nan nan nan nan nan nan nan nan nan nan nan nan nan nan nan nan nan nan nan nan nan nan nan nan 271 265 260 255 252 251 251 246 249 243 240 242 249 253 257 259 255
nan nan nan nan nan nan nan nan nan nan nan nan nan nan nan nan nan nan nan nan nan nan nan nan nan nan nan nan nan nan nan nan nan nan nan nan nan nan nan nan nan nan nan nan nan nan nan nan nan nan nan nan nan nan nan nan nan nan nan nan nan nan nan nan nan nan nan nan nan nan nan nan nan nan 244 nan nan nan 237 237 239 242 246 247 245
nan nan nan nan nan nan nan nan nan nan nan nan nan nan nan nan nan nan nan nan nan nan nan nan nan nan nan nan nan nan nan nan nan nan nan nan nan nan nan nan nan nan nan nan nan nan nan nan nan nan nan nan nan nan nan nan nan nan nan nan nan nan nan nan nan nan nan nan nan nan nan nan nan nan nan nan nan nan nan nan nan nan 240 240 241
nan nan nan nan nan nan nan nan nan nan nan nan nan nan nan nan nan nan nan nan nan nan nan nan nan nan nan nan nan nan nan nan nan nan nan nan nan nan nan nan nan nan nan nan nan nan nan nan nan nan nan nan nan nan nan nan nan nan nan nan nan nan nan nan nan nan nan nan nan nan nan nan nan nan nan nan nan nan nan nan nan nan nan nan nan
nan nan nan nan nan nan nan nan nan nan nan nan nan nan nan nan nan nan nan nan nan nan nan nan nan nan nan nan nan nan nan nan nan nan nan nan nan nan nan nan nan nan nan nan nan nan nan nan nan nan nan nan nan nan nan nan nan nan nan nan nan nan nan nan nan nan nan nan nan nan nan nan nan nan nan nan nan 265 nan nan nan nan nan nan nan
nan nan nan nan nan nan nan nan nan nan nan nan nan nan nan nan nan nan nan nan nan nan nan nan nan nan nan nan nan nan nan nan nan nan nan nan nan nan nan nan nan nan nan nan nan nan nan nan nan nan nan nan nan nan nan nan nan nan nan nan nan nan nan nan nan nan nan nan nan nan nan nan nan nan nan nan nan nan nan nan nan nan nan nan nan
nan nan nan nan nan nan nan nan nan nan nan nan nan nan nan nan nan nan nan nan nan nan nan nan nan nan nan nan nan nan nan nan nan nan nan nan nan nan nan nan nan nan nan nan nan nan nan nan nan nan nan nan nan nan nan nan nan nan nan nan nan nan nan nan nan nan nan nan nan nan nan nan nan nan nan nan nan nan nan nan nan nan nan nan nan
nan nan nan nan nan nan nan nan nan nan nan nan nan nan nan nan nan nan nan nan nan nan nan nan nan nan nan nan nan nan nan nan nan nan nan nan nan nan nan nan nan nan nan nan nan nan nan nan nan nan nan nan nan nan nan nan nan nan nan nan nan nan nan nan nan nan nan nan nan nan nan nan nan nan nan nan nan nan nan nan nan nan nan nan nan
nan nan nan nan nan nan nan nan nan nan nan nan nan nan nan nan nan nan nan nan nan nan nan nan nan nan nan nan nan nan nan nan nan nan nan nan nan nan nan nan nan nan nan nan nan nan nan nan nan nan nan nan nan nan nan nan nan nan nan nan nan nan nan nan nan nan nan nan nan nan nan nan nan nan nan nan nan nan nan nan nan nan nan nan nan
nan nan nan nan nan nan nan nan nan nan nan nan nan nan nan nan nan nan nan nan nan nan nan nan nan nan nan nan nan nan nan nan nan nan nan nan nan nan nan nan nan nan nan nan nan nan nan nan nan nan nan nan nan nan nan nan nan nan nan nan nan nan nan nan nan nan nan nan nan nan nan nan nan nan nan nan nan nan nan nan nan nan nan nan nan
nan nan nan nan nan nan nan nan nan nan nan nan nan nan nan nan nan nan nan nan nan nan nan nan nan nan nan nan nan nan nan nan nan nan nan nan nan nan nan nan nan nan nan nan nan nan nan nan nan nan nan nan nan nan nan nan nan nan nan nan nan nan nan nan nan nan nan nan nan nan nan nan nan nan nan nan nan nan nan nan nan nan nan nan nan
nan nan nan nan nan nan nan nan nan nan nan nan nan nan nan nan nan nan nan nan nan nan nan nan nan nan nan nan nan nan nan nan nan nan nan nan nan nan nan nan nan nan nan nan nan nan nan nan nan nan nan nan nan nan nan nan nan nan nan nan nan nan nan nan nan nan nan nan nan nan nan nan nan nan nan nan nan nan nan nan nan nan nan nan nan
nan nan nan nan nan nan nan nan nan nan nan nan nan nan nan nan nan nan nan nan nan nan nan nan nan nan nan nan nan nan nan nan nan nan nan nan nan nan nan nan nan nan nan nan nan nan nan nan nan nan nan nan nan nan nan nan nan nan nan nan nan nan nan nan nan nan nan nan nan nan nan nan nan nan nan nan nan nan nan nan nan nan nan nan nan
nan nan nan nan nan nan nan nan nan nan nan nan nan nan nan nan nan nan nan nan nan nan nan nan nan nan nan nan nan nan nan nan nan nan nan nan nan nan nan nan nan nan nan nan nan nan nan nan nan nan nan nan nan nan nan nan nan nan nan nan nan nan nan nan nan nan nan nan nan nan nan nan nan nan nan nan nan nan nan nan nan nan nan nan nan
nan nan nan nan nan nan nan nan nan nan nan nan nan nan nan nan nan nan nan nan nan nan nan nan nan nan nan nan nan nan nan nan nan nan nan nan nan nan nan nan nan nan nan nan nan nan nan nan nan nan nan nan nan nan nan nan nan nan nan nan nan nan nan nan nan nan nan nan nan nan nan nan nan nan nan nan nan nan nan nan nan nan nan nan nan
nan nan nan nan nan nan nan nan nan nan nan nan nan nan nan nan nan nan nan nan nan nan nan nan nan nan nan nan nan nan nan nan nan nan nan nan nan nan nan nan nan nan nan nan nan nan nan nan nan nan nan nan nan nan nan nan nan nan nan nan nan nan nan nan nan nan nan nan nan nan nan nan nan nan nan nan nan nan nan nan nan nan nan nan nan
nan nan nan nan nan nan nan nan nan nan nan nan nan nan nan nan nan nan nan nan nan nan nan nan nan nan nan nan nan nan nan nan nan nan nan nan nan nan nan nan nan nan nan nan nan nan nan nan nan nan nan nan nan nan nan nan nan nan nan nan nan nan nan nan nan nan nan nan nan nan nan nan nan nan nan nan nan nan nan nan nan nan nan nan nan
nan nan nan nan nan nan nan nan nan nan nan nan nan nan nan nan nan nan nan nan nan nan nan nan nan nan nan nan nan nan nan nan nan nan nan nan nan nan nan nan nan nan nan nan nan nan nan nan nan nan nan nan nan nan nan nan nan nan nan nan nan nan nan nan nan nan nan nan nan nan nan nan nan nan nan nan nan nan nan nan nan nan nan nan nan
nan nan nan nan nan nan nan nan nan nan nan nan nan nan nan nan nan nan nan nan nan nan nan nan nan nan nan nan nan nan nan nan nan nan nan nan nan nan nan nan nan nan nan nan nan nan nan nan nan nan nan nan nan nan nan nan nan nan nan nan nan nan nan nan nan nan nan nan nan nan nan nan nan nan nan nan nan nan nan nan nan nan nan nan nan
nan nan nan nan nan nan nan nan nan nan nan nan nan nan nan nan nan nan nan nan nan nan nan nan nan nan nan nan nan nan nan nan nan nan nan nan nan nan nan nan nan nan nan nan nan nan nan nan nan nan nan nan nan nan nan nan nan nan nan nan nan nan nan nan nan nan nan nan nan nan nan nan nan nan nan nan nan nan nan nan nan nan nan nan nan
nan nan nan nan nan nan nan nan nan nan nan nan nan nan nan nan nan nan nan nan nan nan nan nan nan nan nan nan nan nan nan nan nan nan nan nan nan nan nan nan nan nan nan nan nan nan nan nan nan nan nan nan nan nan nan nan nan nan nan nan nan nan nan nan nan nan nan nan nan nan nan nan nan nan nan nan nan nan nan nan nan nan nan nan nan
nan nan nan nan nan nan nan nan nan nan nan nan nan nan nan nan nan nan nan nan nan nan nan nan nan nan nan nan nan nan nan nan nan nan nan nan nan nan nan nan nan nan nan nan nan nan nan nan nan nan nan nan nan nan nan nan nan nan nan nan nan nan nan nan nan nan nan nan nan nan nan nan nan nan nan nan nan nan nan nan nan nan nan nan nan
nan nan nan nan nan nan nan nan nan nan nan nan nan nan nan nan nan nan nan nan nan nan nan nan nan nan nan nan nan nan nan nan nan nan nan nan nan nan nan nan nan nan nan nan nan nan nan nan nan nan nan nan nan nan nan nan nan nan nan nan nan nan nan nan nan nan nan nan nan nan nan nan nan nan nan nan nan nan nan nan nan nan nan nan nan
nan nan nan nan nan nan nan nan nan nan nan nan nan nan nan nan nan nan nan nan nan nan nan nan nan nan nan nan nan nan nan nan nan nan nan nan nan nan nan nan nan nan nan nan nan nan nan nan nan nan nan nan nan nan nan nan nan nan nan nan nan nan nan nan nan nan nan nan nan nan nan nan nan nan nan nan nan nan nan nan nan nan nan nan nan
nan nan nan nan nan nan nan nan nan nan nan nan nan nan nan nan nan nan nan nan nan nan nan nan nan nan nan nan nan nan nan nan nan nan nan nan nan nan nan nan nan nan nan nan nan nan nan nan nan nan nan nan nan nan nan nan nan nan nan nan nan nan nan nan nan nan nan nan nan nan nan nan nan nan nan nan nan nan nan nan nan nan nan nan nan
nan nan nan nan nan nan nan nan nan nan nan nan nan nan nan nan nan nan nan nan nan nan nan nan nan nan nan nan nan nan nan nan nan nan nan nan nan nan nan nan nan nan nan nan nan nan nan nan nan nan nan nan nan nan nan nan nan nan nan nan nan nan nan nan nan nan nan nan nan nan nan nan nan nan nan nan nan nan nan nan nan nan nan nan nan
nan nan nan nan nan nan nan nan nan nan nan nan nan nan nan nan nan nan nan nan nan nan nan nan nan nan nan nan nan nan nan nan nan nan nan nan nan nan nan nan nan nan nan nan nan nan nan nan nan nan nan nan nan nan nan nan nan nan nan nan nan nan nan nan nan nan nan nan nan nan nan nan nan nan nan nan nan nan nan nan nan nan nan nan nan
nan nan nan nan nan nan nan nan nan nan nan nan nan nan nan nan nan nan nan nan nan nan nan nan nan nan nan nan nan nan nan nan nan nan nan nan nan nan nan nan nan nan nan nan nan nan nan nan nan nan nan nan nan nan nan nan nan nan nan nan nan nan nan nan nan nan nan nan nan nan nan nan nan nan nan nan nan nan nan nan nan nan nan nan nan